This demonstration page uses our WeatherBlox Daily Observations layout. Learn more.

Left ArrowRight Arrow

Hourly Observations for October 18, 2021

Temp ( °F °C ) Dew Point ( °F °C ) Humidity (%) Winds ( mph kmh ) Pressure ( in mb ) Visibility ( mi km ) Precip ( " mm )
12:53 am 00:53 Clear 52 11.1 40 4.4 64 64 undefined N/A 29.99 1016 10 16 N/A
1:53 am 01:53 Clear 50 10 40 4.4 68 68 S 7 11 29.98 1015 10 16 N/A
2:53 am 02:53 Clear 50 10 40 4.4 68 68 S 7 11 29.98 1015 10 16 N/A
3:53 am 03:53 Clear 48 8.9 39 3.9 71 71 S 6 9 29.97 1015 10 16 N/A
4:53 am 04:53 Clear 47 8.3 38 3.3 71 71 S 7 11 29.96 1015 10 16 N/A
5:53 am 05:53 Clear 46 7.8 37 2.8 71 71 S 7 11 29.95 1014 10 16 N/A
6:53 am 06:53 Clear 47 8.3 36 2.2 66 66 S 8 13 29.96 1014 10 16 N/A
7:53 am 07:53 Sunny 47 8.3 36 2.2 66 66 S 8 13 29.96 1014 10 16 N/A
8:53 am 08:53 Sunny 48 8.9 36 2.2 63 63 S 8 13 29.96 1014 10 16 N/A
9:53 am 09:53 Sunny 54 12.2 39 3.9 57 57 S 9 15 29.96 1014 10 16 N/A
10:53 am 10:53 Sunny 61 16.1 38 3.3 43 43 S 10 17 29.94 1014 10 16 N/A
11:53 am 11:53 Sunny 66 18.9 38 3.3 36 36 S 10 17 29.91 1013 10 16 N/A
12:53 pm 12:53 Sunny 70 21.1 37 2.8 30 30 S 17 28 29.88 1012 10 16 N/A
1:53 pm 13:53 Sunny 72 22.2 37 2.8 28 28 S 18 30 29.85 1011 10 16 N/A
2:53 pm 14:53 Sunny 73 22.8 37 2.8 27 27 S 21 33 29.82 1010 10 16 N/A
3:53 pm 15:53 Sunny 73 22.8 37 2.8 27 27 S 20 31 29.81 1010 10 16 N/A
4:53 pm 16:53 Sunny 72 22.2 37 2.8 28 28 S 17 28 29.81 1010 10 16 N/A
5:53 pm 17:53 Sunny 69 20.6 38 3.3 32 32 S 17 28 29.82 1010 10 16 N/A
6:53 pm 18:53 Clear 65 18.3 39 3.9 39 39 S 9 15 29.83 1010 10 16 N/A
7:53 pm 19:53 Clear 64 17.8 39 3.9 40 40 SSE 13 20 29.83 1010 10 16 N/A
8:53 pm 20:53 Clear 62 16.7 41 5 46 46 S 10 17 29.84 1011 10 16 N/A
9:53 pm 21:53 Clear 60 15.6 41 5 50 50 SSE 13 20 29.84 1011 10 16 N/A
10:53 pm 22:53 Clear 58 14.4 41 5 53 53 SSE 13 20 29.84 1011 10 16 N/A
11:53 pm 23:53 Clear 57 13.9 41 5 55 55 S 12 19 29.83 1010 10 16 N/A

Powered by AerisWeather